Regional Weather Roundup
Issued by NWS

Home | Current Version | Previous Version | Text Only | Print | Product List | Glossary Off
Versions: 1 2 3 4 5 6 7 8 9 10 11 12 13 14 15 16 17 18 19 20 21 22 23 24 25 26 27 28 29 30 31 32 33 34 35 36 37 38 39 40 41 42 43 44 45 46 47 48 49 50

000
ASUS45 KTFX 230819
RWRMT
MONTANA HOURLY WEATHER ROUNDUP
NATIONAL WEATHER SERVICE GREAT FALLS MT
119 AM MST SUN NOV 23 2014

NOTE: "FAIR" INDICATES FEW OR NO CLOUDS BELOW 12000 FEET WITH NO
SIGNIFICANT WEATHER AND/OR OBSTRUCTIONS TO VISIBILITY.

* THESE STATIONS ARE NOT UNDER NWS QUALITY CONTROL. THEY DO NOT
   REPORT WEATHER SUCH AS PRECIPITATION OR FOG.

MTZ001>007-043-230900-
WEST OF THE DIVIDE
CITY           SKY/WX    TMP DP  RH WIND       PRES   REMARKS
KALISPELL      CLOUDY    34  25  70 S6        29.82R WCI  29
MISSOULA       MOCLDY    36  27  70 NW9       29.89R WCI  29
BUTTE          LGT SNOW  27  25  92 W8        29.82R VSB 1 1/4 WCI  19
MULLAN PASS    FOG       25  23  92 VRB7      29.86R VSB 1/2  WCI  17
* EUREKA APT   MOCLDY    37  21  52 CALM      29.84R
* HAMILTON APT MOCLDY    36  25  64 SE6       29.89R WCI  31
* LIBBY APT    MOCLDY    36  25  64 CALM      29.89R
* LINCOLN      N/A       29  23  78 SW5G15     N/A   WCI  24
* LOOKOUT PASS N/A       29  28  96 NE6G11     N/A   WCI  23
* POLSON       N/A       35  24  64 NW3G12     N/A
* RONAN APT    MOCLDY    36  27  70 SE5        N/A   WCI  32
* SEELEY LAKE  N/A       30  26  85 SE1        N/A
* THOMP F APT  PTCLDY    19  12  74 NE5        N/A   WCI  12
* YAAK HILL    N/A       29  25  85 N/A        N/A
$$

MTZ008-052>055-230900-
SOUTHWEST MONTANA
CITY           SKY/WX    TMP DP  RH WIND       PRES   REMARKS
BOZEMAN        CLOUDY    34  23  64 NW16      29.80R WCI  24
DILLON         MOCLDY    28  21  75 SW12      29.82R WCI  18
* W YELLOWSTON MOCLDY    21  19  92 SW4G13     N/A
* ENNIS APT    MOCLDY    30  18  61 N/A        N/A
* THREE FORKS  PTCLDY    36  28  73 W16G22     N/A   WCI  26
* BOULDER HILL N/A       29  11  47 SW1G9      N/A
* MONIDA PASS  N/A       16   8  71 W2         N/A
* RAYNOLDS PAS N/A       20   5  52 S8         N/A   WCI  10
* WHITEHALL    N/A       30  23  75 N5         N/A   WCI  25
* WISE RIVER   N/A       27  20  75 W9         N/A   WCI  18
$$

MTZ009>010-012-014-046-048-049-054-230900-
EAST SLOPES AND CENTRAL MONTANA
CITY           SKY/WX    TMP DP  RH WIND       PRES   REMARKS
CUT BANK       PTCLDY    28  19  69 W14       29.69R WCI  17
GREAT FALLS    MOCLDY    32  19  59 W15       29.71R WCI  22
HELENA         PTCLDY    36  23  59 W15       29.77R WCI  27
MALMSTROM AFB  PTCLDY    36  19  50 W15       29.73R WCI  27
* CONRAD       PTCLDY    34  19  54 SW13       N/A   WCI  25
* DEARBORN     N/A       37  20  50 SW4G11     N/A
* EAST GLACIER N/A       30  15  54 NW11G20    N/A   WCI  21
* MONARCH      N/A       29  11  47 W22G32     N/A   WCI  15
* PENDROY      N/A       29  15  56 NW9G16     N/A   WCI  21
* ROGERS PASS  N/A       26  21  81 SE16G22    N/A   WCI  13
* SAINT MARY   N/A       31  18  59 SW8G20     N/A   WCI  24
* SWEET GRASS  N/A       29  29 100 VRB7       N/A   WCI  22
* WHITE SULPH  N/A       31  17  56 NW10G19    N/A   WCI  22
$$

MTZ011-013-016-021-035-040-045-047-050-051-230900-
NORTH CENTRAL MONTANA
CITY           SKY/WX    TMP DP  RH WIND       PRES   REMARKS
HAVRE          CLOUDY    36  30  79 W14       29.65R WCI  27
LEWISTOWN      CLOUDY    34  19  54 W12       29.66R WCI  25
* N BAR RANCH  PTCLDY    34  14  44 VRB6G18   29.62R WCI  29
* CHINOOK      PTCLDY    36  28  73 W18G26    29.63R WCI  26
* FORT BENTON  PTCLDY    36  19  50 W10       29.72R WCI  29
* MALTA APT    PTCLDY    36  27  70 W23G32     N/A   WCI  24
* CHESTER      N/A       33  29  85 NW9G16     N/A   WCI  25
* DENTON       N/A       36  17  46 W17G22     N/A   WCI  26
* GEYSER       N/A       33  14  45 W17G26     N/A   WCI  22
* JUDITH GAP   N/A       29  16  58 W16        N/A   WCI  17
* LOMA         N/A       39  22  51 W17G22     N/A   WCI  30
$$

MTZ017>020-022>027-061-062-230900-
NORTHEAST MONTANA
CITY           SKY/WX    TMP DP  RH WIND       PRES   REMARKS
GLASGOW        CLOUDY    37  25  62 NW38G45   29.45R WCI  23
GLENDIVE       PTCLDY    36  28  73 W23G30    29.45R WCI  24
JORDAN         MOCLDY    36  28  73 W24G33    29.52R WCI  24
SIDNEY         CLOUDY    39  28  65 W20G29    29.40R WCI  29
WOLF POINT     CLOUDY    39  30  70 W23G32    29.41R WCI  28
* BEAVER HILL  N/A       35  30  82 SW27G38    N/A   WCI  22
* CIRCLE       N/A       38  31  76 W27G33     N/A   WCI  26
* LINDSAY DVD  N/A       34  30  85 W26G34     N/A   WCI  21
* NAVAJO       N/A       30  23  75 NW31G44    N/A   WCI  15
* PLENTYWOOD A PTCLDY    32  25  75 W36G47    29.28R WCI  16
* POPLAR APT   PTCLDY    37  30  76 N/A       29.39R
* SACO         N/A       36  27  70 W24G32     N/A   WCI  24
* SCOBEY APT   PTCLDY    30  19  64 W33G41     N/A   WCI  14
$$

MTZ028>042-056>058-230900-
SOUTHCENTRAL AND SOUTHEAST MONTANA
CITY           SKY/WX    TMP DP  RH WIND       PRES   REMARKS
BAKER          MOCLDY    34  30  85 W25G37    29.49S WCI  21
BILLINGS       PTCLDY    34  16  48 W12       29.68R WCI  25
LIVINGSTON     CLOUDY    36  19  50 W14       29.75R WCI  27
MILES CITY     CLOUDY    39  27  62 W28G39    29.55R WCI  27
* BIG TIMBER A MOCLDY    36  18  48 SW28G37   29.69R WCI  23
* FORSYTH APT  CLOUDY    37  27  67 W14G20    29.60S WCI  28
* LAUREL APT   PTCLDY    39  12  33 W21G31     N/A   WCI  29
* ALZADA       N/A       34  23  64 W9         N/A   WCI  27
* HYSHAM       N/A       37  14  39 W8         N/A   WCI  31
* LAME DEER    N/A       35  16  46 W17        N/A   WCI  25
* REED POINT   N/A       39  17  41 W15G20     N/A   WCI  31
* ROSCOE HILL  N/A       31   7  36 NW6G14     N/A   WCI  25
$$

REGIONAL REPORTS...DAKOTAS
CITY           SKY/WX    TMP DP  RH WIND       PRES   REMARKS
WILLISTON      CLOUDY    37  30  76 W20G26    29.34R WCI  27
DICKINSON      CLOUDY    36  28  73 W22G28    29.39S WCI  25
BEACH          CLOUDY    36  32  85 W25G35    29.44F WCI  24
CROSBY         CLOUDY    36  30  79 W20G30    29.29R WCI  25
TIOGA          CLOUDY    36  36 100 W16G24    29.32R WCI  26
BISMARCK       LGT RAIN  37  36  96 SW6       29.41R WCI  32
GRAND FORKS    FOG       34  30  85 S16       29.36R WCI  24
FARGO          FOG       36  32  85 S12       29.39R VSB 2    WCI  28
BUFFALO SD     CLOUDY    37  25  62 W23       29.45R WCI  26
RAPID CITY     CLOUDY    43  21  42 NW24      29.53S
$$

REGIONAL REPORTS...WYOMING/IDAHO/WASHINGTON
CITY           SKY/WX    TMP DP  RH WIND       PRES   REMARKS
GILLETTE       PTCLDY    28  18  66 W8        29.64R WCI  20
SHERIDAN       PTCLDY    30  18  61 NW13      29.65R WCI  20
CODY           MOCLDY    36  12  37 W15G22    29.70R WCI  27
YELLOWSTONE LA CLOUDY    12   9  88 CALM      29.78R
SALMON         CLOUDY    28  27  96 CALM      29.93R
MULLAN PASS    FOG       25  23  92 VRB7      29.86S VSB 1/2  WCI  17
SAND POINT     CLOUDY    34  32  92 SE9       29.97R WCI  27
SPOKANE        FAIR      30  28  92 SW15      29.99R WCI  19
$$

REGIONAL REPORTS...ALBERTA
CITY           SKY/WX    TMP DP  RH WIND       PRES   REMARKS
CALGARY        MOCLDY    28  25  89 W2        29.67R
LETHBRIDGE     CLOUDY    32  28  85 NE5       29.70R WCI  27
MEDICINE HAT   CLOUDY    28  23  81 NW13G21   29.69R WCI  17
EDMONTON       LGT SNOW  19  14  81 NW13      29.71R WCI   6
WATERTON GATE  N/A       34  14  44 W17G25     N/A   WCI  23
CARDSTON       N/A       32  18  56 W12G17     N/A   WCI  23
MILK RIVER     N/A       30  30 100 N9         N/A   WCI  22
$$

REGIONAL REPORTS...SASKATCHEWAN
CITY           SKY/WX    TMP DP  RH WIND       PRES   REMARKS
SWIFT CURRENT  LGT SNOW  18  16  92 NW21G28   29.48R VSB 2 1/2 WCI   1
REGINA         LGT SNOW  30  30 100 N17G29    29.21R WCI  18
VAL MARIE      N/A       28  21  75 NW28G37    N/A   WCI  13
ASSINIBOIA     N/A       21  18  88 NW29G38    N/A   WCI   3
CORONACH       N/A       27  19  72 W28G36     N/A   WCI  11

$$



USA.gov is the U.S. government's official web portal to all federal, state and local government web resources and services.